Showing default

TOPEX/POSEIDON, 22076

Orbit data source: Space-Track

TOPEX/POSEIDON, 22076 is an American payload satellite in LEO that was launched on Mon, 10 Aug 1992 UTC via an ARIANE 42P launch vehicle from the French Guiana (FRGUI). Payload-class satellites include a variety of spacecraft equipped with specific instruments for various scientific and technological missions. These include communications satellites like Starlink; space stations such as the ISS; scientific satellites like the Hubble; Earth observation satellites from companies like Planet Labs, Umbra, and HawkEye 360; GPS; miniature CubeSats for education and research; and military/defense satellites.

Loading next visibility...
Identifier
22076, 1992-052A
Orbit
LEO
Country
Flag of USUS
Related business
Manufacturer
Fairchild
Mission
Non-operational Civil Science
Bus & Motor
MMS, Unknown motor
Mass
2,402 kg wet, 2,185 kg dry
Launch date (UTC)
1992-08-10 (33 years ago)
Launch vehicle
ARIANE 42P
Launch site
French Guiana (FRGUI)
Object type
Payload
Rocket body
Debris
Shape & HBR
Hex Poly + 1 Pan, 6.8 m
Radar Cross Section
20.954 m², Large (>1 m²)

Expand to show TLE details & history
Last TLE update: 10 hours ago

TLE from 10 hours ago
0 TOPEX/POSEIDON
1 22076U 92052A   26037.00637254 -.00000061  00000-0 -82185-6 0  9999
2 22076  66.0409  44.7156 0008147 272.5220 124.1584 12.81090182566689
Epoch: 2026-02-06T00:09Z
TLE epoch observation values (Epoch: 2026-02-06T00:09:10.587Z)
Latitude
33.22696°
Longitude
-76.89258°
Altitude
1,343.99 km
Speed
7.188 km/s
True Right ascension
04h 06m 12s
True Declination
33° 04' 53"
Sunlit
Object was in daylight at epoch
Visualization orbit readout
Latitude
Unknown
Longitude
Unknown
Altitude
Unknown
Speed
Unknown
Apparent Right ascension
Unknown
Apparent Declination
Unknown
Sunlit
N/A
Visualization observer readout
Local Sidereal Time
12:07:05
Azimuth
Unknown
Elevation
Unknown
Doppler factor
Unknown
Orbital elements
Apogee altitude
1,341.937 km
Perigee altitude
1,329.368 km
Semi-major axis
7,713.79 km
Eccentricity
0.00081
Inclination
66.0409°
RAAN
44.7156°
Arg. of periapsis
272.522°
True anomaly
124.23561°
Mean anomaly
124.1584°
Eccentric anomaly
124.19701°
Mean motion
3.20362 °/min
Orbital period
112.37 mins
BSTAR
-8.2185e-7
Loading maneuver chart data...
Computing Atmospheric mass density...
Loading historical data...
Loading historical data...
Loading historical data...
Loading historical data...
Loading historical data...
Loading historical data...
Loading historical data...

Documentation

Showing up to 5 results
|